Notices

What's New in latest Release from April 7th, 2021:

- Updated Glossary, including Speed of Maximum Gust, and Total Hourly Precipitation

- Updated national and regional climate services offices contacts and prices information

- Addition of station inventory lists for 1981-2010, 1971-2000, and 1961-1990 Normals.

If you haven't already, please take our survey and provide feedback about our website: https://eccc.sondage-survey.ca/f/LanguageSelection.aspx?s=442ca660-fcf1-47c0-95a9-59707d6fd709

Hourly Data Report for January 11, 2021

STE-ANNE-DE-BELLEVUE 1
QUEBEC
Current Station Operator: ECCC - MSC

45°25'38.000" N
73°55'45.000" W
39.00 m
702FHL8
71377
WVQ

Download Data

Hourly Data (January 2021)
Hourly Data Report for January 11, 2021
TIME
LST
Temp Definition
°C
Dew Point Definition
°C
Rel Hum Definition
%
Precip. Amount Definition
mm

Wind Dir Definition
10's deg

Wind Spd Definition
km/h
Visibility Definition
km
Stn Press Definition
kPa
Hmdx Definition


Wind Chill Definition


Weather Definition


00:00 -5.7 -7.8 85 0.0 28 3   102.10   -7 LegendNANA
01:00 -6.6 -8.6 85 0.0 18 6   102.10   -10 LegendNANA
02:00 -7.2 -8.7 89 0.0 16 5   102.08   -10 LegendNANA
03:00 -6.9 -8.1 91 0.0 21 2   102.10   -8 LegendNANA
04:00 -5.7 -6.9 92 0.0 12 4   102.02   -8 LegendNANA
05:00 -5.5 -6.7 91 0.0 32 3   102.02   -7 LegendNANA
06:00 -5.2 -6.4 91 0.0 33 2   102.02   -6 LegendNANA
07:00 -5.2 -6.5 91 0.0   0   102.03     LegendNANA
08:00 -4.4 -5.5 92 0.0 14 3   101.99   -6 LegendNANA
09:00 -3.9 -5.3 90 0.0 0 1   101.99   -4 LegendNANA
10:00 -3.5 -5.1 89 0.0 0 1   101.96   -4 LegendNANA
11:00 -2.1 -4.1 86 0.0 14 4   101.86   -4 LegendNANA
12:00 -1.5 -4.1 82 0.0 15 6   101.75   -4 LegendNANA
13:00 -0.8 -3.8 80 0.0 15 5   101.64   -2 LegendNANA
14:00 -0.1 -3.7 77 0.0 16 6   101.60   -2 LegendNANA
15:00 0.0 -3.5 77 0.0 16 9   101.59   -3 LegendNANA
16:00 -0.2 -3.1 81 0.0 11 4   101.58   -1 LegendNANA
17:00 -1.3 -2.4 92 0.0 15 10   101.55   -5 LegendNANA
18:00 -1.5 -2.3 94 0.2 15 7   101.51   -4 LegendNANA
19:00 -1.4 -2.1 95 0.2 15 8   101.47   -4 LegendNANA
20:00 -1.3 -1.9 96 0.3 15 10   101.42   -5 LegendNANA
21:00 -1.4 -2.0 96 0.2 15 7   101.37   -4 LegendNANA
22:00 -1.2 -1.8 96 0.0 15 7   101.32   -4 LegendNANA
23:00 -0.8 -1.3 97 0.3 17 5   101.30   -2 LegendNANA

Notes on Data Quality.

Legend

  • E = Estimated
  • M = Missing
  • NA = Not Available*
  • [empty] = Indicates an unobserved value
Date modified: